Home   Weather   Faridkot   Past weeks

Flag for India Past Weather in Faridkot, Punjab, India — Yesterday and Last 2 Weeks

Now
59 °F

Clear.


Feels Like: 59 °F
Forecast: 50 / 77 °F
Wind: No wind

Location: Lahore Airport

Current Time: Dec 5, 2016 at 2:05:52 am

Latest Report: Dec 5, 2016 at 1:25 am


Visibility: 2 mi

Pressure: 30.09 "Hg

Humidity: 77%

Dew Point: 52 °F

Location of FaridkotLocation

Past Weather in Faridkot — Graph

°F

Faridkot Temperature Yesterday

Maximum temperature yesterday: 77 °F (at 3:25 pm)
Minimum temperature yesterday: 48 °F (at 7:30 am)
Average temperature yesterday: 63 °F

High & Low Weather Summary for the Past Weeks

 TemperatureHumidityPressure
High84 °F (Nov 21, 2:25 pm)100% (Dec 2, 2:55 am)30.18 "Hg (Dec 2, 2:55 am)
Low46 °F (Dec 3, 7:55 am)17% (Nov 28, 2:25 pm)29.89 "Hg (Nov 20, 1:55 am)
Average66 °F61%30.00 "Hg
* Reported Nov 19 11:55 pm — Dec 5 12:25 am, Faridkot, Weather by CustomWeather, © 2016

Note: Actual official high and low records may vary slightly from our data, if they occured in-between our weather recording intervals... More about our weather records

Advertising

Faridkot Weather History for the Previous 24 Hours

Scroll right to see more
 ConditionsComfort  
Time TempWeatherWind HumidityBarometerVisibility
12:25 am
Mon, Dec 5
61 °FClear.No wind77%30.09 "Hg2 mi
11:55 pm
Sun, Dec 4
63 °FClear.No wind73%30.09 "Hg2 mi
11:25 pm63 °FClear.No wind73%30.12 "Hg2 mi
10:55 pm63 °FClear.No wind77%30.12 "Hg2 mi
10:25 pm64 °FClear.No wind73%30.12 "Hg2 mi
9:55 pm66 °FClear.No wind73%30.12 "Hg2 mi
9:25 pm66 °FClear.No wind73%30.12 "Hg2 mi
8:55 pm68 °FClear.No wind64%30.12 "Hg2 mi
8:25 pm68 °FClear.No wind64%30.09 "Hg2 mi
7:55 pm68 °FClear.No wind69%30.09 "Hg2 mi
7:25 pm70 °FClear.No wind64%30.09 "Hg2 mi
6:55 pm70 °FClear.No wind57%30.09 "Hg2 mi
6:25 pm72 °FClear.No wind53%30.09 "Hg2 mi
5:55 pm72 °FClear.No wind53%30.07 "Hg2 mi
5:25 pm75 °FHaze.No wind47%30.07 "Hg2 mi
4:55 pm75 °FHaze.No wind44%30.09 "Hg2 mi
4:25 pm77 °FHaze.3 mph42%30.09 "Hg2 mi
3:55 pm77 °FHaze.5 mph39%30.09 "Hg1 mi
3:25 pm77 °FHaze.7 mph39%30.09 "Hg1 mi
2:55 pm75 °FHaze.7 mph39%30.09 "Hg1 mi
2:25 pm75 °FHaze.8 mph39%30.09 "Hg1 mi
1:55 pm75 °FHaze.6 mph41%30.12 "Hg1 mi
1:25 pm73 °FHaze.6 mph44%30.12 "Hg1 mi
12:25 pm72 °FPassing clouds.7 mph57%30.15 "Hg1 mi
11:55 am70 °FPassing clouds.3 mph64%30.18 "Hg1 mi
11:25 am68 °FPassing clouds.No wind69%30.18 "Hg1 mi
10:55 am66 °FScattered clouds.No wind73%30.18 "Hg1 mi
10:25 am63 °FScattered clouds.No wind77%30.18 "Hg1 mi
9:55 am59 °FPassing clouds.No wind77%30.18 "Hg1 mi
9:25 am55 °FPassing clouds.No wind77%30.18 "Hg1 mi
8:55 am54 °FFog.No wind82%30.18 "Hg1 mi
8:28 am50 °FFog.3 mph82%30.15 "Hg1 mi
8:00 am48 °FFog.No wind87%30.15 "Hg1 mi
7:30 am48 °FFog.No wind87%30.15 "Hg1 mi
7:00 am50 °FFog.No wind88%30.12 "Hg1 mi
6:30 am50 °FFog.No wind88%30.12 "Hg1 mi
5:30 am52 °FFog.No wind82%30.12 "Hg2 mi
5:00 am54 °FClear.No wind77%30.12 "Hg2 mi
4:30 am54 °FClear.No wind77%30.12 "Hg2 mi
4:00 am55 °FClear.No wind77%30.12 "Hg2 mi
3:25 am55 °FClear.No wind77%30.12 "Hg2 mi
2:55 am55 °FClear.No wind72%30.12 "Hg2 mi
2:25 am55 °FClear.No wind72%30.12 "Hg2 mi
Weather by CustomWeather, © 2016

See weather overviewHow to use our weather pages